Weather History for Baton Rouge, LA

Change the Weather History Date:

Monday, September 3, 2012

  Actual Average Record
Temperature  
Mean Temperature 85 °F 82 °F  
Max Temperature 92 °F 91 °F 103 °F (2000)
Min Temperature 77 °F 72 °F 60 °F (1952)
Degree Days  
Heating Degree Days 0 0  
Month to date heating degree days 0 0  
Since 1 July heating degree days 0 0  
Cooling Degree Days 20 17  
Month to date cooling degree days 57 51  
Year to date cooling degree days 2444 2212  
Growing Degree Days 34 (Base 50)    
Moisture  
Dew Point 76 °F    
Average Humidity 78    
Maximum Humidity 97    
Minimum Humidity 59    
Precipitation  
Precipitation 0.00 in 0.17 in 6.34 in (2011)
Month to date precipitation 0.13 0.50  
Year to date precipitation 44.30 42.21  
Snow  
Snow 0.00 in - - ()
Month to date snowfall 0.0  
Since 1 July snowfall 0.0  
Since 1 September snowfall 0.0  
Snow Depth 0.00 in    
Sea Level Pressure  
Sea Level Pressure 29.99 in    
Wind  
Wind Speed 8 mph (WSW)    
Max Wind Speed 13 mph    
Max Gust Speed 18 mph    
Visibility 10 miles    
Events      
T = Trace of Precipitation, MM = Missing Value Source: NWS Daily Summary

Daily Weather History Graph

Daily Weather History Graph

Search for Another Location

Airport:

Trip Planner

Search our weather history database for the weather conditions in past years. The results will help you decide how hot, cold, wet, or windy it might be!

Date:

Astronomy

Sep. 03, 2012 Rise Set
Actual Time 6:42 AM CDT 7:24 PM CDT
Civil Twilight 6:18 AM CDT 7:48 PM CDT
Nautical Twilight 5:49 AM CDT 8:17 PM CDT
Astronomical Twilight 5:20 AM CDT 8:46 PM CDT
Moon 9:03 PM CDT (9/3) 9:32 AM CDT (9/3)
Length of Visible Light 13h 30m
Length of Day
12h 41m
Waning Gibbous, 90% of the Moon is Illuminated
Sep 3
Waning Gibbous
Sep 8
Last Quarter
Sep 15
New
Sep 22
First Quarter
Sep 29
Full

Hourly Weather History & Observations

Time (CDT) Temp. Heat Index Dew Point Humidity Pressure Visibility Wind Dir Wind Speed Gust Speed Precip Events Conditions
12:53 AM 80.1 °F 85.8 °F 77.0 °F 90% 29.99 in 10.0 mi SW 10.4 mph - N/A   Clear
1:53 AM 79.0 °F - 77.0 °F 94% 29.99 in 10.0 mi SW 8.1 mph 18.4 mph N/A   Clear
2:53 AM 79.0 °F - 77.0 °F 94% 29.97 in 10.0 mi WSW 9.2 mph - N/A   Clear
3:53 AM 78.1 °F - 75.9 °F 93% 29.98 in 10.0 mi SW 5.8 mph - N/A   Clear
4:53 AM 77.0 °F - 75.9 °F 96% 29.98 in 10.0 mi WSW 6.9 mph - N/A   Clear
5:53 AM 77.0 °F - 75.9 °F 96% 29.99 in 10.0 mi West 5.8 mph - N/A   Clear
6:53 AM 77.0 °F - 75.9 °F 96% 30.01 in 9.0 mi WSW 5.8 mph - N/A   Clear
7:53 AM 79.0 °F - 75.9 °F 90% 30.02 in 10.0 mi WSW 8.1 mph - N/A   Clear
8:53 AM 82.0 °F 90.2 °F 77.0 °F 85% 30.03 in 10.0 mi WSW 6.9 mph - N/A   Clear
9:53 AM 84.0 °F 93.7 °F 77.0 °F 79% 30.04 in 10.0 mi West 10.4 mph - N/A   Scattered Clouds
10:02 AM 84.2 °F 94.1 °F 77.0 °F 79% 30.04 in 10.0 mi West 10.4 mph - N/A   Mostly Cloudy
10:53 AM 86.0 °F 96.9 °F 77.0 °F 74% 30.04 in 10.0 mi SW 10.4 mph - N/A   Mostly Cloudy
11:07 AM 87.8 °F 99.7 °F 77.0 °F 70% 30.04 in 10.0 mi West 10.4 mph - N/A   Mostly Cloudy
11:53 AM 88.0 °F 100.2 °F 77.0 °F 70% 30.03 in 10.0 mi WSW 11.5 mph - N/A   Mostly Cloudy
12:53 PM 90.0 °F 100.2 °F 75.0 °F 61% 30.01 in 10.0 mi West 6.9 mph - N/A   Mostly Cloudy
1:53 PM 91.0 °F 101.6 °F 75.0 °F 59% 30.00 in 10.0 mi West 10.4 mph - N/A   Mostly Cloudy
2:00 PM 91.4 °F 100.1 °F 73.4 °F 55% 30.00 in 10.0 mi WSW 11.5 mph - N/A   Clear
2:07 PM 91.4 °F 100.1 °F 73.4 °F 55% 29.99 in 10.0 mi WSW 8.1 mph - N/A   Mostly Cloudy
2:53 PM 91.9 °F 103.2 °F 75.0 °F 58% 29.97 in 10.0 mi WSW 10.4 mph - N/A   Mostly Cloudy
3:53 PM 91.9 °F 103.2 °F 75.0 °F 58% 29.95 in 10.0 mi WSW 10.4 mph 18.4 mph N/A   Scattered Clouds
4:53 PM 91.0 °F 101.6 °F 75.0 °F 59% 29.94 in 10.0 mi West 6.9 mph - N/A   Partly Cloudy
5:53 PM 90.0 °F 99.0 °F 73.9 °F 59% 29.93 in 10.0 mi WSW 8.1 mph - N/A   Clear
6:53 PM 88.0 °F 97.5 °F 75.0 °F 65% 29.92 in 10.0 mi WSW 6.9 mph - N/A   Clear
7:53 PM 84.9 °F 93.3 °F 75.0 °F 72% 29.92 in 10.0 mi WSW 8.1 mph - N/A   Clear
8:53 PM 84.0 °F 93.7 °F 77.0 °F 79% 29.94 in 10.0 mi SW 9.2 mph - N/A   Clear
9:53 PM 82.9 °F 90.8 °F 75.9 °F 79% 29.95 in 10.0 mi SW 9.2 mph - N/A   Clear
10:53 PM 81.0 °F 87.3 °F 75.9 °F 85% 29.96 in 10.0 mi SW 8.1 mph - N/A   Clear
11:53 PM 80.1 °F 85.4 °F 75.9 °F 87% 29.96 in 10.0 mi WSW 9.2 mph - N/A   Clear